N0NB Weather Reports


time (UTC)temp
C
wind
direction
speed
KPH
gust
KPH
rain 1hr
cm
rain 24hr
cm
rain mn
cm
humidity
%
barometer
mb
20260906183516 31 113 1.6 6.4 0.00 0.00 0.00 63 1013.8
20260906182516 31 0.0 3.2 0.00 0.00 0.00 65 1014.0
20260906181516 30 0.0 1.6 0.00 0.00 0.00 66 1014.2
20260906180516 30 0.0 3.2 0.00 0.00 0.00 67 1014.3
20260906175515 30 0.0 3.2 0.00 0.00 0.00 68 1014.4
20260906174515 29 0.0 6.4 0.00 0.00 0.00 67 1014.5
20260906173515 29 338 1.6 4.8 0.00 0.00 0.00 68 1014.6
20260906172515 28 0.0 4.8 0.00 0.00 0.00 70 1014.7
20260906171515 28 270 1.6 9.7 0.00 0.00 0.00 70 1014.9
20260906170515 28 0.0 0.0 0.00 0.00 0.00 72 1015.0
20260906165515 28 338 1.6 4.8 0.00 0.00 0.00 71 1015.4
20260906164515 28 338 1.6 4.8 0.00 0.00 0.00 71 1015.5
20260906163515 28 338 1.6 6.4 0.00 0.00 0.00 70 1015.4
20260906162515 28 338 1.6 6.4 0.00 0.00 0.00 70 1015.4
20260906161515 28 338 1.6 6.4 0.00 0.00 0.00 70 1015.5
20260906160515 28 315 3.2 8.0 0.00 0.00 0.00 71 1015.4
20260906155515 28 338 3.2 8.0 0.00 0.00 0.00 68 1015.3
20260906154515 27 315 3.2 8.0 0.00 0.00 0.00 70 1015.2
20260906153515 27 0.0 4.8 0.00 0.00 0.00 73 1015.0
20260906152515 27 293 1.6 6.4 0.00 0.00 0.00 73 1015.0
20260906151515 27 293 1.6 4.8 0.00 0.00 0.00 76 1015.0
20260906150517 26 293 3.2 6.4 0.00 0.00 0.00 77 1015.0
20260906145517 26 248 4.8 8.0 0.00 0.00 0.00 78 1015.0
20260906144517 26 270 4.8 12.9 0.00 0.00 0.00 80 1015.0
20260906143517 26 180 3.2 12.9 0.00 0.00 0.00 82 1014.5
20260906142517 25 0.0 0.0 0.00 0.00 0.00 85 1014.7
20260906141517 25 0.0 0.0 0.00 0.00 0.00 86 1014.5
20260906140517 25 0.0 0.0 0.00 0.00 0.00 86 1014.5
20260906135517 24 0.0 0.0 0.00 0.00 0.00 87 1014.7
20260906134517 24 0.0 0.0 0.00 0.00 0.00 88 1014.7
20260906133517 24 0.0 0.0 0.00 0.00 0.00 89 1014.5
20260906132517 23 0.0 0.0 0.00 0.00 0.00 90 1014.8
20260906131517 23 0.0 0.0 0.00 0.00 0.00 91 1014.6
20260906130517 23 0.0 0.0 0.00 0.00 0.00 92 1014.4
20260906125517 22 0.0 0.0 0.00 0.00 0.00 93 1014.4
20260906124517 22 0.0 0.0 0.00 0.00 0.00 94 1014.3
20260906123517 21 0.0 0.0 0.00 0.00 0.00 95 1014.2
20260906122517 21 0.0 0.0 0.00 0.00 0.00 95 1014.0
20260906121517 21 0.0 0.0 0.00 0.00 0.00 94 1013.9
20260906120517 21 0.0 0.0 0.00 0.00 0.00 94 1013.7
20260906115517 21 0.0 0.0 0.00 0.00 0.00 94 1013.6
20260906114517 21 0.0 0.0 0.00 0.00 0.00 94 1013.5
20260906113517 21 0.0 0.0 0.00 0.00 0.00 93 1013.4
20260906112517 21 0.0 0.0 0.00 0.00 0.00 93 1013.4
20260906111517 21 0.0 0.0 0.00 0.00 0.00 93 1013.4
20260906110517 21 0.0 0.0 0.00 0.00 0.00 93 1013.4
20260906105517 21 0.0 0.0 0.00 0.00 0.00 94 1013.4
20260906104517 21 0.0 0.0 0.00 0.00 0.00 93 1013.4
20260906103517 21 0.0 0.0 0.00 0.00 0.00 93 1013.4
20260906102517 21 0.0 0.0 0.00 0.00 0.00 94 1013.3
20260906101517 21 0.0 0.0 0.00 0.00 0.00 95 1013.3
20260906100516 21 0.0 0.0 0.00 0.00 0.00 95 1013.3
20260906095517 21 0.0 0.0 0.00 0.00 0.00 95 1013.3
20260906094517 21 0.0 0.0 0.00 0.00 0.00 94 1013.2
20260906093516 21 0.0 0.0 0.00 0.00 0.00 93 1013.1
20260906092516 21 0.0 0.0 0.00 0.00 0.00 93 1013.1
20260906091517 21 0.0 0.0 0.00 0.00 0.00 93 1013.1
20260906090516 21 0.0 0.0 0.00 0.00 0.00 93 1013.0
20260906085517 21 0.0 0.0 0.00 0.00 0.00 92 1013.0
20260906084516 21 0.0 0.0 0.00 0.00 0.00 92 1013.0
20260906083516 21 0.0 0.0 0.00 0.00 0.00 92 1013.0
20260906082516 21 0.0 0.0 0.00 0.00 0.00 91 1012.9
20260906081517 21 0.0 0.0 0.00 0.00 0.00 91 1013.0
20260906080516 22 0.0 0.0 0.00 0.00 0.00 90 1013.1
20260906075516 22 0.0 0.0 0.00 0.00 0.00 92 1013.0
20260906074516 22 0.0 0.0 0.00 0.00 0.00 92 1012.9
20260906073516 22 0.0 0.0 0.00 0.00 0.00 92 1012.9
20260906072517 22 0.0 0.0 0.00 0.00 0.00 91 1012.9
20260906071516 22 0.0 0.0 0.00 0.00 0.00 91 1012.9
20260906070516 22 0.0 0.0 0.00 0.00 0.00 92 1013.0
20260906065516 22 0.0 0.0 0.00 0.00 0.00 93 1013.1
20260906064516 22 0.0 0.0 0.00 0.00 0.00 93 1013.0
20260906063516 21 0.0 0.0 0.00 0.00 0.00 92 1012.8
20260906062516 21 0.0 0.0 0.00 0.00 0.00 92 1012.9
20260906061516 22 0.0 0.0 0.00 0.00 0.00 92 1013.0
20260906060516 22 0.0 0.0 0.00 0.00 0.00 92 1013.0
20260906055516 22 0.0 0.0 0.00 0.00 0.00 91 1013.0
20260906054516 22 0.0 0.0 0.00 0.00 0.00 91 1013.0
20260906053516 22 0.0 0.0 0.00 0.00 0.00 91 1013.1
20260906052516 22 0.0 0.0 0.00 0.00 0.00 91 1013.1
20260906051516 22 0.0 0.0 0.00 0.00 0.00 91 1013.0
20260906050516 22 0.0 0.0 0.00 0.00 0.00 90 1012.9
20260906045515 22 0.0 0.0 0.00 0.00 0.00 90 1012.9
20260906044515 22 0.0 0.0 0.00 0.00 0.00 90 1012.9
20260906043515 22 0.0 0.0 0.00 0.00 0.00 89 1012.9
20260906042517 22 0.0 0.0 0.00 0.00 0.00 89 1012.8
20260906041517 23 0.0 0.0 0.00 0.00 0.00 88 1012.8
20260906040517 23 0.0 0.0 0.00 0.00 0.00 88 1012.7
20260906035517 23 0.0 0.0 0.00 0.00 0.00 87 1012.6
20260906034517 23 0.0 0.0 0.00 0.00 0.00 87 1012.6
20260906033517 23 0.0 0.0 0.00 0.00 0.00 87 1012.5
20260906032517 23 0.0 0.0 0.00 0.00 0.00 86 1012.4
20260906031517 23 0.0 0.0 0.00 0.00 0.00 85 1012.3
20260906030517 24 0.0 0.0 0.00 0.00 0.00 84 1012.2
20260906025517 24 0.0 0.0 0.00 0.00 0.00 84 1012.0
20260906024517 24 0.0 0.0 0.00 0.00 0.00 83 1011.9
20260906023517 25 0.0 0.0 0.00 0.00 0.00 82 1011.8
20260906022517 25 0.0 0.0 0.00 0.00 0.00 81 1011.3
20260906021517 25 0.0 0.0 0.00 0.00 0.00 80 1011.3
20260906020517 26 0.0 0.0 0.00 0.00 0.00 78 1011.2
20260906015517 26 0.0 0.0 0.00 0.00 0.00 75 1011.0
20260906014517 27 0.0 0.0 0.00 0.00 0.00 73 1010.9
20260906013517 27 0.0 0.0 0.00 0.00 0.00 71 1010.9
20260906012517 28 0.0 0.0 0.00 0.00 0.00 70 1010.6
20260906011517 28 0.0 0.0 0.00 0.00 0.00 68 1010.8
20260906010517 29 0.0 0.0 0.00 0.00 0.00 66 1010.6
20260906005517 30 0.0 0.0 0.00 0.00 0.00 64 1010.6
20260906004517 31 0.0 0.0 0.00 0.00 0.00 62 1010.8
20260906003517 31 0.0 3.2 0.00 0.00 0.00 59 1010.9
20260906002517 32 135 1.6 4.8 0.00 0.00 0.00 58 1011.0
20260906001517 33 135 1.6 4.8 0.00 0.00 0.00 56 1011.0
20260906000517 33 135 3.2 6.4 0.00 0.00 0.00 55 1011.1
20260905235517 33 135 4.8 8.0 0.00 0.00 0.00 52 1011.1
20260905234516 34 135 6.4 12.9 0.00 0.00 0.00 52 1011.1
20260905233517 34 158 6.4 12.9 0.00 0.00 0.00 51 1011.0
20260905232517 34 158 9.7 16.1 0.00 0.00 0.00 51 1011.0
20260905231517 35 158 11.3 19.3 0.00 0.00 0.00 50 1011.0
20260905230516 35 158 9.7 19.3 0.00 0.00 0.00 51 1011.0
20260905225517 35 158 9.7 17.7 0.00 0.00 0.00 48 1011.0
20260905224516 36 158 9.7 17.7 0.00 0.00 0.00 48 1011.0
20260905223516 36 180 6.4 14.5 0.00 0.00 0.00 48 1011.0
20260905222516 36 203 8.0 17.7 0.00 0.00 0.00 49 1011.0
20260905221517 36 180 9.7 14.5 0.00 0.00 0.00 46 1011.2
20260905220516 36 158 8.0 16.1 0.00 0.00 0.00 46 1011.4
20260905215516 36 180 9.7 14.5 0.00 0.00 0.00 46 1011.5
20260905214516 36 180 8.0 16.1 0.00 0.00 0.00 47 1011.5
20260905213516 36 180 9.7 17.7 0.00 0.00 0.00 47 1011.5
20260905212516 36 180 8.0 14.5 0.00 0.00 0.00 47 1011.6
20260905211516 36 180 8.0 16.1 0.00 0.00 0.00 47 1011.8
20260905210516 36 180 6.4 16.1 0.00 0.00 0.00 47 1012.1
20260905205516 36 203 8.0 14.5 0.00 0.00 0.00 45 1012.2
20260905204516 36 180 9.7 16.1 0.00 0.00 0.00 45 1012.3
20260905203516 36 203 9.7 19.3 0.00 0.00 0.00 44 1012.5
20260905202516 36 158 11.3 19.3 0.00 0.00 0.00 46 1012.6
20260905201516 36 158 11.3 19.3 0.00 0.00 0.00 47 1012.7
20260905200516 36 158 8.0 19.3 0.00 0.00 0.00 48 1012.7
20260905195516 36 180 11.3 19.3 0.00 0.00 0.00 47 1012.9
20260905194516 36 180 8.0 14.5 0.00 0.00 0.00 49 1013.0
20260905193516 36 203 12.9 27.4 0.00 0.00 0.00 48 1013.0
20260905192516 36 135 11.3 20.9 0.00 0.00 0.00 49 1013.1
20260905191516 36 180 8.0 14.5 0.00 0.00 0.00 50 1013.1
20260905190516 36 180 8.0 14.5 0.00 0.00 0.00 49 1013.1
20260905185516 36 113 9.7 17.7 0.00 0.00 0.00 48 1013.3
20260905184516 36 158 11.3 22.5 0.00 0.00 0.00 49 1013.3